| time (UTC) | temp F | wind direction | speed MPH | gust MPH | rain 1hr in | rain 24hr in | rain mn in | humidity % | barometer mb |
| 20260508045903 | 61 | 122 | 1.0 | 2.0 | 0.00 | 0.00 | 0.00 | 60 | 1014.3 |
| 20260508045404 | 61 | 122 | 1.0 | 1.0 | 0.00 | 0.00 | 0.00 | 59 | 1014.4 |
| 20260508044904 | 62 | 122 | 0.0 | 2.0 | 0.00 | 0.00 | 0.00 | 60 | 1014.4 |
| 20260508043903 | 62 | 122 | 2.0 | 3.0 | 0.00 | 0.00 | 0.00 | 60 | 1014.3 |
| 20260508043404 | 62 | 122 | 2.0 | 3.0 | 0.00 | 0.00 | 0.00 | 59 | 1014.3 |
| 20260508042904 | 62 | 122 | 0.0 | 0.0 | 0.00 | 0.00 | 0.00 | 60 | 1014.3 |
| 20260508042404 | 62 | 122 | 0.0 | 0.0 | 0.00 | 0.00 | 0.00 | 59 | 1014.2 |
| 20260508041903 | 62 | 122 | 0.0 | 0.0 | 0.00 | 0.00 | 0.00 | 59 | 1014.1 |
| 20260508041403 | 62 | 122 | 0.0 | 0.0 | 0.00 | 0.00 | 0.00 | 59 | 1014.1 |
| 20260508040904 | 62 | 122 | 0.0 | 0.0 | 0.00 | 0.00 | 0.00 | 58 | 1014.0 |
| 20260508040404 | 62 | 122 | 0.0 | 0.0 | 0.00 | 0.00 | 0.00 | 58 | 1014.0 |
| 20260508035904 | 62 | 122 | 0.0 | 0.0 | 0.00 | 0.00 | 0.00 | 58 | 1013.9 |
| 20260508035403 | 62 | 122 | 0.0 | 0.0 | 0.00 | 0.00 | 0.00 | 58 | 1014.0 |
| 20260508034904 | 62 | 122 | 0.0 | 0.0 | 0.00 | 0.00 | 0.00 | 58 | 1014.0 |
| 20260508034403 | 62 | 122 | 0.0 | 0.0 | 0.00 | 0.00 | 0.00 | 58 | 1014.0 |
| 20260508033904 | 62 | 122 | 0.0 | 0.0 | 0.00 | 0.00 | 0.00 | 59 | 1013.8 |
| 20260508033403 | 62 | 122 | 0.0 | 0.0 | 0.00 | 0.00 | 0.00 | 58 | 1013.8 |
| 20260508031904 | 63 | 122 | 0.0 | 0.0 | 0.00 | 0.00 | 0.00 | 58 | 1014.0 |
| 20260508030903 | 63 | 122 | 0.0 | 0.0 | 0.00 | 0.00 | 0.00 | 56 | 1013.9 |
| 20260508030404 | 63 | 122 | 0.0 | 0.0 | 0.00 | 0.00 | 0.00 | 57 | 1013.8 |
| 20260508025904 | 63 | 122 | 0.0 | 0.0 | 0.00 | 0.00 | 0.00 | 57 | 1013.8 |
| 20260508025404 | 63 | 122 | 0.0 | 0.0 | 0.00 | 0.00 | 0.00 | 56 | 1013.9 |
| 20260508024904 | 63 | 122 | 0.0 | 0.0 | 0.00 | 0.00 | 0.00 | 56 | 1013.7 |
| 20260508024404 | 63 | 122 | 0.0 | 0.0 | 0.00 | 0.00 | 0.00 | 55 | 1013.8 |
| 20260508023903 | 63 | 122 | 0.0 | 0.0 | 0.00 | 0.00 | 0.00 | 55 | 1013.9 |
| 20260508023404 | 64 | 122 | 0.0 | 0.0 | 0.00 | 0.00 | 0.00 | 55 | 1013.7 |
| 20260508022904 | 64 | 122 | 0.0 | 0.0 | 0.00 | 0.00 | 0.00 | 55 | 1013.8 |
| 20260508022404 | 64 | 122 | 0.0 | 0.0 | 0.00 | 0.00 | 0.00 | 55 | 1013.8 |
| 20260508021403 | 64 | 122 | 0.0 | 0.0 | 0.00 | 0.00 | 0.00 | 55 | 1013.7 |
| 20260508020903 | 64 | 122 | 0.0 | 1.0 | 0.00 | 0.00 | 0.00 | 55 | 1013.4 |
| 20260508020403 | 65 | 122 | 0.0 | 0.0 | 0.00 | 0.00 | 0.00 | 55 | 1013.4 |
| 20260508015904 | 65 | 122 | 0.0 | 0.0 | 0.00 | 0.00 | 0.00 | 55 | 1013.3 |
| 20260508014904 | 65 | 122 | 0.0 | 0.0 | 0.00 | 0.00 | 0.00 | 54 | 1013.4 |
| 20260508014404 | 65 | 122 | 0.0 | 0.0 | 0.00 | 0.00 | 0.00 | 53 | 1013.6 |
| 20260508013903 | 65 | 122 | 0.0 | 0.0 | 0.00 | 0.00 | 0.00 | 53 | 1013.7 |
| 20260508013403 | 66 | 122 | 0.0 | 0.0 | 0.00 | 0.00 | 0.00 | 53 | 1013.5 |
| 20260508012903 | 66 | 122 | 0.0 | 0.0 | 0.00 | 0.00 | 0.00 | 52 | 1013.5 |
| 20260508010905 | 67 | 122 | 1.0 | 2.0 | 0.00 | 0.00 | 0.00 | 52 | 1013.3 |
| 20260508010405 | 67 | 122 | 1.0 | 2.0 | 0.00 | 0.00 | 0.00 | 51 | 1013.3 |
| 20260508005405 | 67 | 122 | 0.0 | 1.0 | 0.00 | 0.00 | 0.00 | 51 | 1013.4 |
| 20260508004905 | 67 | 122 | 1.0 | 2.0 | 0.00 | 0.00 | 0.00 | 51 | 1013.4 |
| 20260508004405 | 67 | 122 | 2.0 | 3.0 | 0.00 | 0.00 | 0.00 | 51 | 1013.4 |
| 20260508003405 | 68 | 122 | 2.0 | 3.0 | 0.00 | 0.00 | 0.00 | 51 | 1013.5 |
| 20260508002905 | 68 | 123 | 1.0 | 3.0 | 0.00 | 0.00 | 0.00 | 51 | 1013.7 |
| 20260508002405 | 68 | 123 | 2.0 | 3.0 | 0.00 | 0.00 | 0.00 | 50 | 1013.7 |
| 20260508001405 | 68 | 120 | 1.0 | 3.0 | 0.00 | 0.00 | 0.00 | 50 | 1013.4 |
| 20260508000905 | 68 | 120 | 2.0 | 3.0 | 0.00 | 0.00 | 0.00 | 50 | 1013.6 |
| 20260508000405 | 68 | 120 | 2.0 | 3.0 | 0.00 | 0.00 | 0.00 | 50 | 1013.6 |
| 20260507235905 | 68 | 119 | 2.0 | 3.0 | 0.00 | 0.00 | 0.00 | 50 | 1013.6 |
| 20260507234905 | 68 | 119 | 2.0 | 3.0 | 0.00 | 0.00 | 0.00 | 50 | 1013.5 |
| 20260507234405 | 68 | 123 | 2.0 | 7.0 | 0.00 | 0.00 | 0.00 | 50 | 1013.6 |
| 20260507233905 | 69 | 111 | 3.0 | 8.0 | 0.00 | 0.00 | 0.00 | 50 | 1013.7 |
| 20260507233405 | 69 | 122 | 3.0 | 6.0 | 0.00 | 0.00 | 0.00 | 50 | 1013.6 |
| 20260507232906 | 69 | 115 | 2.0 | 6.0 | 0.00 | 0.00 | 0.00 | 50 | 1013.6 |
| 20260507232405 | 69 | 122 | 2.0 | 6.0 | 0.00 | 0.00 | 0.00 | 50 | 1013.7 |
| 20260507231405 | 69 | 130 | 2.0 | 8.0 | 0.00 | 0.00 | 0.00 | 49 | 1013.8 |
| 20260507230905 | 69 | 112 | 4.0 | 8.0 | 0.00 | 0.00 | 0.00 | 49 | 1013.8 |
| 20260507225905 | 70 | 113 | 3.0 | 8.0 | 0.00 | 0.00 | 0.00 | 49 | 1013.8 |
| 20260507225405 | 70 | 129 | 3.0 | 7.0 | 0.00 | 0.00 | 0.00 | 49 | 1013.9 |
| 20260507224404 | 70 | 131 | 3.0 | 8.0 | 0.00 | 0.00 | 0.00 | 48 | 1013.9 |
| 20260507223905 | 70 | 105 | 2.0 | 6.0 | 0.00 | 0.00 | 0.00 | 48 | 1013.8 |
| 20260507223404 | 70 | 136 | 3.0 | 7.0 | 0.00 | 0.00 | 0.00 | 48 | 1013.9 |
| 20260507222905 | 71 | 134 | 3.0 | 5.0 | 0.00 | 0.00 | 0.00 | 48 | 1014.0 |
| 20260507222405 | 71 | 124 | 3.0 | 8.0 | 0.00 | 0.00 | 0.00 | 48 | 1013.8 |
| 20260507221905 | 71 | 118 | 3.0 | 6.0 | 0.00 | 0.00 | 0.00 | 48 | 1013.8 |
| 20260507221405 | 71 | 132 | 6.0 | 9.0 | 0.00 | 0.00 | 0.00 | 48 | 1014.0 |
| 20260507220904 | 71 | 112 | 3.0 | 8.0 | 0.00 | 0.00 | 0.00 | 47 | 1014.1 |
| 20260507220405 | 71 | 108 | 3.0 | 7.0 | 0.00 | 0.00 | 0.00 | 47 | 1014.2 |
| 20260507215905 | 71 | 126 | 3.0 | 7.0 | 0.00 | 0.00 | 0.00 | 48 | 1014.1 |
| 20260507215405 | 71 | 102 | 3.0 | 6.0 | 0.00 | 0.00 | 0.00 | 47 | 1014.1 |
| 20260507214905 | 71 | 115 | 3.0 | 7.0 | 0.00 | 0.00 | 0.00 | 47 | 1014.1 |
| 20260507214405 | 72 | 121 | 1.0 | 6.0 | 0.00 | 0.00 | 0.00 | 46 | 1014.2 |
| 20260507213905 | 72 | 121 | 3.0 | 7.0 | 0.00 | 0.00 | 0.00 | 47 | 1014.3 |
| 20260507212905 | 72 | 125 | 3.0 | 7.0 | 0.00 | 0.00 | 0.00 | 45 | 1014.4 |
| 20260507212404 | 72 | 124 | 2.0 | 6.0 | 0.00 | 0.00 | 0.00 | 46 | 1014.4 |
| 20260507211905 | 72 | 142 | 3.0 | 7.0 | 0.00 | 0.01 | 0.00 | 46 | 1014.5 |
| 20260507211405 | 73 | 112 | 3.0 | 7.0 | 0.00 | 0.05 | 0.00 | 46 | 1014.4 |
| 20260507210905 | 73 | 91 | 3.0 | 8.0 | 0.00 | 0.08 | 0.00 | 46 | 1014.4 |
| 20260507210405 | 73 | 124 | 4.0 | 8.0 | 0.00 | 0.12 | 0.00 | 45 | 1014.5 |
| 20260507205906 | 73 | 271 | 2.0 | 3.0 | 0.00 | 0.13 | 0.00 | 44 | 1014.4 |
| 20260507205406 | 73 | 188 | 2.0 | 3.0 | 0.00 | 0.13 | 0.00 | 44 | 1014.4 |
| 20260507204905 | 73 | 185 | 2.0 | 5.0 | 0.00 | 0.13 | 0.00 | 45 | 1014.4 |
| 20260507203905 | 73 | 195 | 3.0 | 5.0 | 0.00 | 0.13 | 0.00 | 45 | 1014.3 |
| 20260507203405 | 73 | 189 | 3.0 | 3.0 | 0.00 | 0.13 | 0.00 | 44 | 1014.5 |
| 20260507202905 | 73 | 231 | 3.0 | 5.0 | 0.00 | 0.13 | 0.00 | 45 | 1014.7 |
| 20260507202405 | 73 | 202 | 2.0 | 5.0 | 0.00 | 0.13 | 0.00 | 45 | 1014.8 |
| 20260507201904 | 73 | 191 | 2.0 | 5.0 | 0.00 | 0.13 | 0.00 | 45 | 1014.8 |
| 20260507201405 | 73 | 233 | 3.0 | 7.0 | 0.00 | 0.13 | 0.00 | 46 | 1014.9 |
| 20260507200905 | 73 | 170 | 5.0 | 8.0 | 0.00 | 0.13 | 0.00 | 45 | 1015.0 |
| 20260507200405 | 73 | 193 | 5.0 | 9.0 | 0.00 | 0.13 | 0.00 | 46 | 1015.1 |
| 20260507195905 | 73 | 130 | 3.0 | 8.0 | 0.00 | 0.13 | 0.00 | 45 | 1015.1 |
| 20260507195405 | 72 | 6 | 1.0 | 8.0 | 0.00 | 0.13 | 0.00 | 44 | 1015.2 |
| 20260507194905 | 72 | 311 | 3.0 | 6.0 | 0.00 | 0.13 | 0.00 | 44 | 1015.2 |
| 20260507194407 | 72 | 28 | 3.0 | 6.0 | 0.00 | 0.13 | 0.00 | 46 | 1015.4 |
| 20260507193905 | 72 | 24 | 2.0 | 7.0 | 0.00 | 0.13 | 0.00 | 45 | 1015.2 |
| 20260507193405 | 71 | 79 | 3.0 | 7.0 | 0.00 | 0.13 | 0.00 | 43 | 1015.5 |
| 20260507192905 | 72 | 331 | 4.0 | 8.0 | 0.00 | 0.13 | 0.00 | 43 | 1015.6 |
| 20260507192404 | 71 | 295 | 5.0 | 9.0 | 0.00 | 0.13 | 0.00 | 46 | 1015.7 |
| 20260507191905 | 71 | 356 | 4.0 | 8.0 | 0.00 | 0.13 | 0.00 | 45 | 1015.7 |
| 20260507190905 | 71 | 107 | 2.0 | 7.0 | 0.00 | 0.13 | 0.00 | 45 | 1015.8 |
| 20260507190405 | 70 | 297 | 4.0 | 8.0 | 0.00 | 0.13 | 0.00 | 45 | 1015.7 |
| 20260507185905 | 70 | 36 | 2.0 | 6.0 | 0.00 | 0.13 | 0.00 | 46 | 1015.8 |
| 20260507185405 | 70 | 314 | 6.0 | 14.0 | 0.00 | 0.13 | 0.00 | 44 | 1015.9 |
| 20260507184905 | 70 | 311 | 7.0 | 12.0 | 0.00 | 0.13 | 0.00 | 46 | 1015.8 |
| 20260507184405 | 70 | 339 | 7.0 | 16.0 | 0.00 | 0.13 | 0.00 | 46 | 1015.7 |
| 20260507183905 | 70 | 356 | 3.0 | 7.0 | 0.00 | 0.13 | 0.00 | 46 | 1015.7 |
| 20260507182905 | 69 | 31 | 5.0 | 9.0 | 0.00 | 0.13 | 0.00 | 46 | 1016.0 |
| 20260507182405 | 69 | 34 | 5.0 | 10.0 | 0.00 | 0.13 | 0.00 | 47 | 1016.1 |
| 20260507181905 | 68 | 275 | 3.0 | 8.0 | 0.00 | 0.13 | 0.00 | 49 | 1016.1 |
| 20260507181408 | 68 | 316 | 4.0 | 12.0 | 0.00 | 0.13 | 0.00 | 50 | 1016.2 |
| 20260507180904 | 68 | 306 | 3.0 | 12.0 | 0.00 | 0.13 | 0.00 | 50 | 1016.3 |
| 20260507180405 | 68 | 324 | 3.0 | 7.0 | 0.00 | 0.13 | 0.00 | 49 | 1016.5 |
| 20260507175905 | 67 | 301 | 4.0 | 10.0 | 0.00 | 0.13 | 0.00 | 50 | 1016.6 |
| 20260507175405 | 67 | 304 | 5.0 | 10.0 | 0.00 | 0.13 | 0.00 | 49 | 1016.5 |
| 20260507174904 | 67 | 286 | 4.0 | 9.0 | 0.00 | 0.13 | 0.00 | 49 | 1016.6 |
| 20260507174405 | 67 | 268 | 6.0 | 12.0 | 0.00 | 0.13 | 0.00 | 49 | 1016.6 |
| 20260507173905 | 67 | 300 | 6.0 | 12.0 | 0.00 | 0.13 | 0.00 | 48 | 1016.7 |
| 20260507173405 | 67 | 330 | 4.0 | 9.0 | 0.00 | 0.13 | 0.00 | 48 | 1016.7 |
| 20260507172404 | 67 | 23 | 3.0 | 9.0 | 0.00 | 0.13 | 0.00 | 48 | 1017.0 |
| 20260507171905 | 67 | 339 | 6.0 | 12.0 | 0.00 | 0.13 | 0.00 | 48 | 1017.2 |
| 20260507171405 | 67 | 59 | 3.0 | 7.0 | 0.00 | 0.13 | 0.00 | 48 | 1017.4 |
| 20260507170905 | 67 | 28 | 4.0 | 12.0 | 0.00 | 0.13 | 0.00 | 49 | 1017.7 |
| 20260507170405 | 67 | 355 | 4.0 | 7.0 | 0.00 | 0.13 | 0.00 | 49 | 1017.7 |
| 20260507165904 | 67 | 336 | 6.0 | 10.0 | 0.00 | 0.13 | 0.00 | 48 | 1017.7 |
| 20260507165405 | 67 | 48 | 4.0 | 8.0 | 0.00 | 0.13 | 0.00 | 49 | 1017.9 |
| 20260507164904 | 67 | 336 | 5.0 | 9.0 | 0.00 | 0.13 | 0.00 | 49 | 1018.0 |
| 20260507164405 | 67 | 335 | 5.0 | 10.0 | 0.00 | 0.13 | 0.00 | 51 | 1018.0 |
| 20260507163905 | 66 | 312 | 3.0 | 8.0 | 0.00 | 0.13 | 0.00 | 50 | 1018.0 |
| 20260507163404 | 66 | 339 | 5.0 | 10.0 | 0.00 | 0.13 | 0.00 | 50 | 1018.0 |
| 20260507162904 | 66 | 69 | 3.0 | 9.0 | 0.00 | 0.13 | 0.00 | 49 | 1018.0 |
| 20260507162404 | 66 | 43 | 6.0 | 9.0 | 0.00 | 0.13 | 0.00 | 49 | 1018.1 |
| 20260507161405 | 66 | 1 | 3.0 | 10.0 | 0.00 | 0.13 | 0.00 | 51 | 1018.1 |
| 20260507160905 | 65 | 39 | 3.0 | 8.0 | 0.00 | 0.13 | 0.00 | 51 | 1018.0 |
| 20260507160405 | 65 | 338 | 2.0 | 8.0 | 0.00 | 0.13 | 0.00 | 52 | 1018.0 |
| 20260507155904 | 65 | 27 | 2.0 | 9.0 | 0.00 | 0.13 | 0.00 | 52 | 1018.0 |
| 20260507155405 | 65 | 320 | 5.0 | 8.0 | 0.00 | 0.13 | 0.00 | 52 | 1018.0 |
| 20260507154405 | 65 | 331 | 2.0 | 6.0 | 0.00 | 0.13 | 0.00 | 51 | 1018.1 |
| 20260507153904 | 65 | 45 | 5.0 | 9.0 | 0.00 | 0.13 | 0.00 | 52 | 1018.1 |
| 20260507153404 | 65 | 51 | 3.0 | 10.0 | 0.00 | 0.13 | 0.00 | 52 | 1018.3 |
| 20260507152905 | 64 | 43 | 3.0 | 9.0 | 0.00 | 0.13 | 0.00 | 55 | 1018.4 |
| 20260507152405 | 64 | 1 | 3.0 | 8.0 | 0.00 | 0.13 | 0.00 | 53 | 1018.5 |
| 20260507151904 | 64 | 1 | 4.0 | 8.0 | 0.00 | 0.13 | 0.00 | 55 | 1018.5 |
| 20260507151405 | 63 | 7 | 4.0 | 9.0 | 0.00 | 0.13 | 0.00 | 55 | 1018.6 |
| 20260507150905 | 63 | 349 | 2.0 | 7.0 | 0.00 | 0.13 | 0.00 | 55 | 1018.6 |
| 20260507150405 | 63 | 334 | 6.0 | 10.0 | 0.00 | 0.13 | 0.00 | 55 | 1018.6 |
| 20260507145905 | 62 | 338 | 6.0 | 9.0 | 0.00 | 0.13 | 0.00 | 56 | 1018.6 |
| 20260507145404 | 62 | 9 | 3.0 | 6.0 | 0.00 | 0.13 | 0.00 | 58 | 1018.5 |
| 20260507144904 | 62 | 5 | 2.0 | 9.0 | 0.00 | 0.13 | 0.00 | 58 | 1018.6 |
| 20260507144405 | 61 | 309 | 3.0 | 8.0 | 0.00 | 0.13 | 0.00 | 58 | 1018.6 |
| 20260507143905 | 61 | 1 | 4.0 | 9.0 | 0.00 | 0.13 | 0.00 | 57 | 1018.6 |
| 20260507143404 | 61 | 314 | 6.0 | 12.0 | 0.00 | 0.13 | 0.00 | 57 | 1018.7 |
| 20260507141905 | 60 | 296 | 3.0 | 5.0 | 0.00 | 0.13 | 0.00 | 59 | 1018.7 |
| 20260507141405 | 60 | 349 | 3.0 | 9.0 | 0.00 | 0.13 | 0.00 | 60 | 1018.8 |
| 20260507140406 | 59 | 316 | 3.0 | 7.0 | 0.00 | 0.13 | 0.00 | 61 | 1018.9 |
| 20260507135905 | 59 | 335 | 3.0 | 5.0 | 0.00 | 0.13 | 0.00 | 61 | 1018.9 |
| 20260507134905 | 59 | 298 | 3.0 | 5.0 | 0.00 | 0.13 | 0.00 | 63 | 1019.2 |
| 20260507134405 | 58 | 265 | 2.0 | 3.0 | 0.00 | 0.13 | 0.00 | 64 | 1019.2 |
| 20260507133905 | 58 | 265 | 5.0 | 7.0 | 0.00 | 0.13 | 0.00 | 65 | 1019.2 |
| 20260507132904 | 58 | 273 | 3.0 | 6.0 | 0.00 | 0.13 | 0.00 | 68 | 1019.1 |
| 20260507131906 | 57 | 211 | 2.0 | 3.0 | 0.00 | 0.13 | 0.00 | 70 | 1019.1 |
| 20260507131420 | 57 | 210 | 2.0 | 3.0 | 0.00 | 0.13 | 0.00 | 71 | 1019.1 |
| 20260507130905 | 56 | 194 | 1.0 | 3.0 | 0.00 | 0.13 | 0.00 | 70 | 1019.1 |
| 20260507130404 | 55 | 194 | 1.0 | 2.0 | 0.00 | 0.13 | 0.00 | 69 | 1019.2 |
| 20260507125905 | 55 | 194 | 1.0 | 2.0 | 0.00 | 0.13 | 0.00 | 69 | 1019.2 |
| 20260507125405 | 55 | 194 | 1.0 | 2.0 | 0.00 | 0.13 | 0.00 | 69 | 1019.1 |
| 20260507124905 | 54 | 198 | 1.0 | 2.0 | 0.00 | 0.13 | 0.00 | 69 | 1019.1 |
| 20260507123905 | 54 | 239 | 0.0 | 1.0 | 0.00 | 0.13 | 0.00 | 68 | 1018.9 |
| 20260507123405 | 54 | 240 | 1.0 | 3.0 | 0.00 | 0.13 | 0.00 | 68 | 1018.8 |
| 20260507122905 | 53 | 245 | 1.0 | 2.0 | 0.00 | 0.13 | 0.00 | 68 | 1018.7 |
| 20260507122405 | 53 | 323 | 0.0 | 2.0 | 0.00 | 0.13 | 0.00 | 68 | 1018.8 |
| 20260507120905 | 53 | 323 | 0.0 | 0.0 | 0.00 | 0.13 | 0.00 | 67 | 1018.6 |
| 20260507120405 | 53 | 323 | 0.0 | 0.0 | 0.00 | 0.13 | 0.00 | 68 | 1018.5 |
| 20260507115905 | 53 | 323 | 0.0 | 0.0 | 0.00 | 0.13 | 0.00 | 68 | 1018.6 |
| 20260507115405 | 53 | 323 | 0.0 | 2.0 | 0.00 | 0.13 | 0.00 | 68 | 1018.4 |
| 20260507114904 | 53 | 323 | 1.0 | 3.0 | 0.00 | 0.13 | 0.00 | 68 | 1018.5 |
| 20260507114404 | 53 | 325 | 2.0 | 3.0 | 0.00 | 0.13 | 0.00 | 68 | 1018.3 |
| 20260507113905 | 53 | 339 | 2.0 | 3.0 | 0.00 | 0.13 | 0.00 | 68 | 1018.3 |
| 20260507113405 | 53 | 318 | 2.0 | 3.0 | 0.00 | 0.13 | 0.00 | 68 | 1018.2 |
| 20260507112404 | 53 | 262 | 1.0 | 2.0 | 0.00 | 0.13 | 0.00 | 67 | 1018.1 |
| 20260507111405 | 53 | 261 | 2.0 | 3.0 | 0.00 | 0.13 | 0.00 | 68 | 1018.2 |
| 20260507110905 | 53 | 299 | 2.0 | 3.0 | 0.00 | 0.13 | 0.00 | 68 | 1018.1 |
| 20260507105904 | 53 | 318 | 1.0 | 3.0 | 0.00 | 0.13 | 0.00 | 68 | 1017.8 |
| 20260507105405 | 53 | 322 | 2.0 | 5.0 | 0.00 | 0.13 | 0.00 | 68 | 1017.4 |
| 20260507104905 | 53 | 318 | 3.0 | 9.0 | 0.00 | 0.13 | 0.00 | 68 | 1017.0 |
| 20260507103905 | 53 | 317 | 3.0 | 8.0 | 0.00 | 0.13 | 0.00 | 67 | 1016.9 |
| 20260507103405 | 53 | 338 | 3.0 | 7.0 | 0.00 | 0.13 | 0.00 | 67 | 1016.8 |
| 20260507102905 | 53 | 339 | 4.0 | 7.0 | 0.00 | 0.13 | 0.00 | 67 | 1016.6 |
| 20260507102405 | 53 | 346 | 4.0 | 6.0 | 0.00 | 0.13 | 0.00 | 67 | 1016.5 |
| 20260507101905 | 53 | 14 | 3.0 | 6.0 | 0.00 | 0.13 | 0.00 | 67 | 1016.6 |
| 20260507101405 | 53 | 348 | 2.0 | 3.0 | 0.00 | 0.13 | 0.00 | 67 | 1016.8 |
| 20260507100904 | 53 | 355 | 2.0 | 3.0 | 0.00 | 0.13 | 0.00 | 66 | 1016.8 |
| 20260507100405 | 53 | 357 | 2.0 | 3.0 | 0.00 | 0.13 | 0.00 | 66 | 1016.7 |
| 20260507095405 | 53 | 14 | 2.0 | 3.0 | 0.00 | 0.13 | 0.00 | 66 | 1016.5 |
| 20260507093905 | 54 | 5 | 2.0 | 5.0 | 0.00 | 0.13 | 0.00 | 66 | 1016.7 |
| 20260507093405 | 54 | 351 | 2.0 | 5.0 | 0.00 | 0.13 | 0.00 | 66 | 1016.6 |
| 20260507092904 | 54 | 10 | 2.0 | 3.0 | 0.00 | 0.13 | 0.00 | 66 | 1016.6 |
| 20260507091904 | 54 | 350 | 3.0 | 5.0 | 0.00 | 0.13 | 0.00 | 66 | 1016.4 |
| 20260507091405 | 54 | 1 | 2.0 | 5.0 | 0.00 | 0.13 | 0.00 | 66 | 1016.3 |
| 20260507090905 | 54 | 350 | 3.0 | 6.0 | 0.00 | 0.13 | 0.00 | 66 | 1016.4 |
| 20260507090404 | 54 | 0 | 3.0 | 6.0 | 0.00 | 0.13 | 0.00 | 66 | 1016.4 |
| 20260507085905 | 54 | 354 | 2.0 | 6.0 | 0.00 | 0.13 | 0.00 | 66 | 1016.3 |
| 20260507085404 | 54 | 345 | 2.0 | 5.0 | 0.00 | 0.13 | 0.00 | 66 | 1016.4 |
| 20260507084904 | 54 | 346 | 3.0 | 6.0 | 0.00 | 0.13 | 0.00 | 66 | 1016.3 |
| 20260507084405 | 54 | 342 | 3.0 | 6.0 | 0.00 | 0.13 | 0.00 | 66 | 1016.3 |
| 20260507083905 | 54 | 2 | 4.0 | 8.0 | 0.00 | 0.13 | 0.00 | 66 | 1016.2 |
| 20260507083405 | 54 | 352 | 4.0 | 6.0 | 0.00 | 0.13 | 0.00 | 66 | 1016.2 |
| 20260507082905 | 54 | 4 | 3.0 | 9.0 | 0.00 | 0.13 | 0.00 | 66 | 1016.3 |
| 20260507082404 | 54 | 341 | 5.0 | 9.0 | 0.00 | 0.13 | 0.00 | 66 | 1016.1 |
| 20260507081905 | 55 | 348 | 3.0 | 5.0 | 0.00 | 0.13 | 0.00 | 66 | 1016.1 |
| 20260507081404 | 55 | 4 | 4.0 | 8.0 | 0.00 | 0.13 | 0.00 | 66 | 1016.0 |
| 20260507080405 | 55 | 21 | 3.0 | 7.0 | 0.00 | 0.13 | 0.00 | 66 | 1015.9 |
| 20260507075904 | 55 | 34 | 3.0 | 8.0 | 0.00 | 0.13 | 0.00 | 66 | 1015.9 |
| 20260507075404 | 55 | 15 | 3.0 | 8.0 | 0.00 | 0.13 | 0.00 | 66 | 1015.8 |
| 20260507074905 | 55 | 26 | 4.0 | 8.0 | 0.00 | 0.13 | 0.00 | 66 | 1015.7 |
| 20260507074404 | 55 | 18 | 2.0 | 6.0 | 0.00 | 0.13 | 0.00 | 66 | 1015.7 |
| 20260507073905 | 55 | 23 | 2.0 | 8.0 | 0.00 | 0.13 | 0.00 | 65 | 1015.5 |
| 20260507072905 | 55 | 23 | 3.0 | 7.0 | 0.00 | 0.13 | 0.00 | 65 | 1015.4 |
| 20260507072405 | 55 | 15 | 3.0 | 8.0 | 0.00 | 0.13 | 0.00 | 65 | 1015.6 |
| 20260507071904 | 55 | 15 | 3.0 | 6.0 | 0.00 | 0.13 | 0.00 | 65 | 1015.6 |
| 20260507071405 | 55 | 37 | 3.0 | 5.0 | 0.00 | 0.13 | 0.00 | 65 | 1015.7 |
| 20260507070904 | 55 | 44 | 2.0 | 5.0 | 0.00 | 0.13 | 0.00 | 65 | 1015.6 |
| 20260507070405 | 56 | 23 | 4.0 | 8.0 | 0.00 | 0.13 | 0.00 | 65 | 1015.6 |
| 20260507065905 | 56 | 45 | 3.0 | 8.0 | 0.00 | 0.13 | 0.00 | 65 | 1015.7 |
| 20260507065404 | 56 | 51 | 4.0 | 7.0 | 0.00 | 0.13 | 0.00 | 65 | 1015.6 |
| 20260507064905 | 56 | 50 | 3.0 | 9.0 | 0.00 | 0.13 | 0.00 | 65 | 1015.7 |
| 20260507064404 | 56 | 54 | 4.0 | 8.0 | 0.00 | 0.13 | 0.00 | 64 | 1015.8 |
| 20260507063405 | 56 | 52 | 5.0 | 10.0 | 0.00 | 0.13 | 0.00 | 65 | 1015.7 |
| 20260507062905 | 56 | 41 | 5.0 | 10.0 | 0.00 | 0.13 | 0.00 | 64 | 1015.7 |
| 20260507062405 | 56 | 52 | 4.0 | 9.0 | 0.00 | 0.13 | 0.00 | 64 | 1015.6 |
| 20260507061905 | 56 | 49 | 5.0 | 8.0 | 0.00 | 0.13 | 0.00 | 64 | 1015.5 |
| 20260507061405 | 56 | 53 | 5.0 | 7.0 | 0.00 | 0.13 | 0.00 | 64 | 1015.5 |
| 20260507060905 | 57 | 49 | 5.0 | 7.0 | 0.00 | 0.13 | 0.00 | 63 | 1015.4 |
| 20260507060404 | 57 | 58 | 4.0 | 9.0 | 0.00 | 0.13 | 0.00 | 63 | 1015.5 |
| 20260507054904 | 57 | 53 | 6.0 | 10.0 | 0.00 | 0.13 | 0.00 | 62 | 1015.6 |
| 20260507053905 | 57 | 49 | 4.0 | 9.0 | 0.00 | 0.13 | 0.00 | 61 | 1015.7 |
| 20260507053405 | 57 | 40 | 4.0 | 9.0 | 0.00 | 0.13 | 0.00 | 61 | 1015.6 |
| 20260507052905 | 57 | 40 | 3.0 | 7.0 | 0.00 | 0.13 | 0.00 | 61 | 1015.7 |
| 20260507052405 | 57 | 45 | 3.0 | 6.0 | 0.00 | 0.13 | 0.00 | 60 | 1015.7 |
| 20260507051905 | 58 | 40 | 5.0 | 10.0 | 0.00 | 0.13 | 0.00 | 60 | 1015.7 |
| 20260507051405 | 58 | 50 | 5.0 | 10.0 | 0.00 | 0.13 | 0.00 | 60 | 1015.7 |
| 20260507050905 | 58 | 47 | 5.0 | 10.0 | 0.00 | 0.13 | 0.00 | 60 | 1015.7 |
| 20260507050405 | 58 | 54 | 5.0 | 7.0 | 0.00 | 0.13 | 0.00 | 60 | 1015.8 |